1530529200.7,42266,15.44,73770.0,19.31,8.19,9.57,0,*48
1530529201.9,42267,15.44,73770.3,19.31,7.87,9.21,0,*40
1530529203.07,42268,15.44,73768.3,19.31,7.97,9.33,0,*4D
1530529204.26,42269,15.44,73770.5,19.33,8.01,9.43,0,*49
1530529205.47,42270,15.44,73770.8,19.35,7.37,8.61,0,*4C
1530529206.7,42271,15.44,73770.5,19.35,7.91,9.25,0,*40
1530529207.94,42272,15.44,73770.8,19.33,7.77,8.97,0,*45
1530529209.2,42273,15.44,73768.8,19.35,7.95,8.93,0,*4A
1530529210.43,42274,15.44,73768.3,19.33,7.73,8.75,0,*4B
1530529211.69,42275,15.44,73768.8,19.35,7.69,8.59,0,*49
1530529212.92,42276,15.44,73768.3,19.33,7.65,8.29,0,*47
1530529214.14,42277,15.44,73768.8,19.33,7.23,8.01,0,*4E
1530529215.31,42278,15.44,73768.8,19.31,6.75,7.41,0,*4A
1530529216.55,42279,15.44,73768.8,19.27,6.51,7.15,0,*4B
1530529217.78,42280,15.44,73768.5,19.27,7.23,7.95,0,*41
1530529218.96,42281,15.44,73768.0,19.27,7.59,7.97,0,*4F
1530529220.14,42282,15.44,73768.8,19.31,7.41,7.79,0,*42
1530529221.35,42283,15.44,73770.0,19.27,5.93,6.25,0,*41
1530529222.55,42284,15.44,73766.8,19.23,6.29,6.65,0,*44
1530529223.81,42285,15.44,73770.3,19.21,6.87,7.11,0,*41
1530529225.03,42286,15.44,73768.8,19.21,8.29,8.65,0,*44
1530529226.25,42287,15.44,73772.0,19.21,8.69,8.97,0,*4C
1530529227.48,42288,15.44,73764.8,19.21,7.77,7.51,0,*46
1530529228.7,42289,15.44,73770.0,19.21,5.51,5.63,0,*42
1530529229.89,42290,15.44,73768.3,19.19,5.23,5.33,0,*41
1530529231.08,42291,15.44,73768.5,19.15,5.77,5.95,0,*41
1530529232.33,42292,15.44,73766.5,19.13,6.53,6.65,0,*4D
1530529233.58,42293,15.44,73764.0,19.11,5.01,5.01,0,*4B
1530529234.81,42294,15.44,73768.3,19.09,5.99,5.93,0,*4F
1530529236.0,42295,15.44,73766.5,19.07,6.25,6.33,0,*4D
1530529237.24,42296,15.5,73770.5,19.07,6.43,6.47,0,*4D
1530529238.45,42297,15.44,73764.8,19.03,6.73,6.75,0,*4A
1530529239.68,42298,15.44,73766.5,19.03,6.73,6.73,0,*43
1530529240.95,42299,15.44,73766.3,19.01,5.93,5.93,0,*40
1530529242.2,42300,15.44,73766.0,18.99,5.81,5.93,0,*42
1530529243.39,42301,15.44,73764.0,18.97,6.11,6.21,0,*4D
1530529244.6,42302,15.44,73766.0,18.95,6.11,6.11,0,*4F
1530529245.78,42303,15.44,73764.8,18.93,4.89,4.89,0,*48
1530529246.95,42304,15.44,73768.0,18.93,5.29,5.41,0,*41
1530529248.18,42305,15.44,73770.5,18.89,5.81,5.89,0,*4D
1530529249.42,42306,15.44,73766.3,18.89,5.93,5.93,0,*46
1530529250.61,42307,15.44,73766.8,18.89,5.19,5.29,0,*44
1530529251.8,42308,15.44,73764.3,18.85,4.37,4.33,0,*40
1530529253.05,42309,15.44,73764.0,18.79,4.31,4.41,0,*41
1530529254.26,42310,15.5,73766.8,18.79,5.95,5.95,0,*4E
1530529255.44,42311,15.44,73766.8,18.77,5.29,5.29,0,*41
1530529256.69,42312,15.44,73764.0,18.75,5.77,5.89,0,*41
1530529257.95,42313,15.44,73764.8,18.75,4.79,4.79,0,*41
1530529259.19,42314,15.44,73764.5,18.71,4.63,4.57,0,*45
1530529260.42,42315,15.44,73766.0,18.71,5.93,5.95,0,*45
1530529261.63,42316,15.44,73766.0,18.69,5.77,5.59,0,*45
1530529262.86,42317,15.44,73766.0,18.67,4.75,4.59,0,*48
1530529264.07,42318,15.44,73762.8,18.67,4.85,4.75,0,*46
1530529265.26,42319,15.44,73766.3,18.63,5.19,5.07,0,*43
1530529266.45,42320,15.44,73764.3,18.63,5.19,5.07,0,*49
1530529267.71,42321,15.44,73764.0,18.57,3.07,2.85,0,*4B
1530529268.96,42322,15.44,73764.8,18.53,3.41,3.23,0,*43
1530529270.22,42323,15.44,73764.5,18.49,3.15,3.07,0,*4E
1530529271.48,42324,15.44,73762.3,18.45,3.19,3.03,0,*4D
1530529272.69,42325,15.44,73764.0,18.41,3.89,3.63,0,*47
1530529273.9,42326,15.5,73764.3,18.41,4.07,3.89,0,*41
1530529275.13,42327,15.44,73764.8,18.35,3.81,3.67,0,*4A
1530529276.34,42328,15.44,73764.5,18.33,4.31,4.07,0,*4E
1530529277.58,42329,15.5,73766.5,18.31,3.89,3.71,0,*4F
1530529278.83,42330,15.5,73764.3,18.27,3.45,3.23,0,*47
1530529280.07,42331,15.5,73764.8,18.25,3.45,3.33,0,*45
1530529281.28,42332,15.44,73762.5,18.21,3.93,3.71,0,*4F
1530529282.46,42333,15.44,73762.5,18.21,4.19,4.15,0,*4E
1530529283.72,42334,15.44,73766.0,18.19,3.45,3.33,0,*4F
1530529284.94,42335,15.5,73766.0,18.13,3.07,2.91,0,*4B
1530529286.16,42336,15.5,73766.8,18.09,3.15,2.99,0,*48
1530529287.39,42337,15.44,73766.5,18.07,2.61,2.39,0,*4F
1530529288.65,42338,15.44,73764.0,18.01,2.77,2.59,0,*47
1530529289.88,42339,15.5,73766.8,18.01,3.15,2.99,0,*4F
1530529291.12,42340,15.5,73764.3,17.97,3.07,2.95,0,*4E
1530529292.32,42341,15.44,73760.3,17.91,2.99,3.11,0,*42
1530529293.51,42342,15.5,73766.5,17.91,3.93,3.81,0,*43
1530529294.74,42343,15.44,73762.5,17.89,4.07,4.01,0,*4E
1530529295.95,42344,15.5,73764.8,17.87,3.19,2.61,0,*4F
1530529297.15,42345,15.5,73764.3,17.83,2.35,2.13,0,*40
1530529298.4,42346,15.5,73766.3,17.79,2.17,2.17,0,*42
1530529299.63,42347,15.5,73766.0,17.75,3.23,3.11,0,*4E
1530529300.84,42348,15.5,73764.0,17.75,4.01,3.63,0,*43
1530529302.07,42349,15.5,73766.0,17.69,3.41,3.37,0,*4D
1530529303.28,42350,15.5,73766.0,17.69,3.37,3.25,0,*47
1530529304.49,42351,15.5,73764.0,17.65,3.11,2.99,0,*48
1530529305.72,42352,15.44,73762.8,17.63,1.97,1.79,0,*4C
1530529306.99,42353,15.5,73766.8,17.59,2.17,2.01,0,*43
1530529308.25,42354,15.5,73762.5,17.55,2.05,1.85,0,*44
1530529309.48,42355,15.5,73766.3,17.53,2.13,1.97,0,*47
1530529310.69,42356,15.5,73764.8,17.49,2.61,2.39,0,*4D
1530529311.94,42357,15.5,73766.3,17.43,2.59,2.43,0,*40
1530529313.18,42358,15.5,73766.8,17.43,2.01,1.75,0,*44
1530529314.43,42359,15.5,73766.8,17.39,2.21,1.97,0,*46
1530529315.67,42360,15.5,73764.0,17.35,2.17,1.83,0,*40
1530529316.9,42361,15.5,73764.8,17.31,2.09,1.83,0,*4A
1530529318.1,42362,15.44,73762.5,17.29,0.97,0.71,0,*49
1530529319.34,42363,15.5,73762.5,17.27,1.05,0.91,0,*72
1530529320.54,42364,15.44,73762.8,17.21,2.35,2.21,0,*4A
1530529321.77,42365,15.5,73764.8,17.17,2.51,2.25,0,*48
1530529322.99,42366,15.5,73768.0,17.17,2.17,1.89,0,*4C
1530529324.2,42367,15.5,73766.5,17.13,2.09,1.75,0,*45
1530529325.43,42368,15.5,73764.0,17.09,1.51,1.37,0,*49
1530529326.63,42369,15.5,73768.5,17.07,1.79,1.47,0,*4B
1530529327.88,42370,15.5,73766.0,17.05,1.89,1.55,0,*4D
1530529329.11,42371,15.5,73764.0,16.99,1.63,1.47,0,*4F
1530529330.32,42372,15.5,73764.0,16.97,2.65,2.31,0,*45
1530529331.54,42373,15.5,73766.8,16.95,1.71,1.43,0,*46
1530529332.8,42374,15.5,73764.8,16.93,1.67,1.33,0,*47
1530529334.03,42375,15.5,73768.0,16.91,1.71,1.47,0,*40
1530529335.27,42376,15.5,73770.3,16.87,1.55,1.37,0,*45
1530529336.49,42377,15.5,73764.3,16.83,1.21,1.01,0,*46
1530529337.75,42378,15.5,73764.0,16.81,1.25,1.09,0,*47
1530529338.95,42379,15.5,73764.0,16.73,0.55,0.43,0,*42
1530529340.21,42380,15.5,73764.0,16.71,1.29,1.17,0,*4C
1530529341.42,42381,15.5,73764.5,16.69,1.41,1.29,0,*47
1530529342.64,42382,15.5,73764.3,16.65,2.13,1.93,0,*4D
1530529343.88,42383,15.5,73764.8,16.63,2.61,2.51,0,*42
1530529345.11,42384,15.5,73766.3,16.63,2.95,2.73,0,*4E
1530529346.34,42385,15.5,73764.0,16.61,2.69,2.43,0,*4D
1530529347.57,42386,15.5,73764.3,16.61,3.03,2.85,0,*49
1530529348.78,42387,15.5,73766.8,16.61,2.91,2.69,0,*40
1530529350.01,42388,15.5,73766.8,16.61,3.19,3.15,0,*44
1530529351.27,42389,15.5,73764.8,16.55,3.15,2.85,0,*46
1530529352.54,42390,15.5,73760.5,16.55,2.51,2.17,0,*44
1530529353.81,42391,15.5,73766.0,16.51,1.13,0.83,0,*7B
1530529355.05,42392,15.5,73762.3,16.49,1.37,1.13,0,*4F
1530529356.31,42393,15.5,73766.5,16.47,2.81,2.59,0,*43
1530529357.57,42394,15.5,73766.3,16.47,2.21,1.93,0,*4B
1530529358.8,42395,15.5,73762.3,16.43,2.39,2.21,0,*4D
1530529360.04,42396,15.5,73768.8,16.43,2.59,2.47,0,*48
1530529361.3,42397,15.5,73764.8,16.41,2.01,1.85,0,*4B
1530529362.49,42398,15.5,73764.8,16.39,1.83,1.75,0,*4D
1530529363.72,42399,15.5,73766.0,16.37,2.05,1.83,0,*46
1530529365.0,42400,15.5,73766.5,16.33,2.17,2.13,0,*4C
1530529366.21,42401,15.5,73766.5,16.31,2.27,2.25,0,*49
1530529367.42,42402,15.5,73760.3,16.29,2.35,2.35,0,*41
1530529368.66,42403,15.5,73764.8,16.27,2.81,2.69,0,*48
1530529369.88,42404,15.5,73764.0,16.23,2.61,2.51,0,*4E
1530529371.06,42405,15.5,73764.5,16.23,2.31,2.31,0,*4C
1530529372.32,42406,15.5,73766.5,16.21,3.33,3.33,0,*4D
1530529373.58,42407,15.5,73764.3,16.21,2.73,2.59,0,*44
1530529374.82,42408,15.5,73762.0,16.23,3.11,3.03,0,*42
1530529376.03,42409,15.5,73766.5,16.19,1.93,1.75,0,*41
1530529377.27,42410,15.5,73762.8,16.15,2.09,2.17,0,*42
1530529378.47,42411,15.5,73764.8,16.15,2.61,2.65,0,*48
1530529379.68,42412,15.5,73766.0,16.15,2.61,2.43,0,*4F
1530529380.92,42413,15.5,73764.0,16.15,3.03,3.11,0,*4D
1530529382.19,42414,15.5,73766.5,16.13,3.67,3.71,0,*48
1530529383.43,42415,15.5,73764.0,16.17,2.81,2.61,0,*44
1530529384.66,42416,15.5,73766.8,16.11,2.59,2.59,0,*4F
1530529385.89,42417,15.5,73760.5,16.11,2.59,2.59,0,*4E
1530529387.09,42418,15.5,73766.3,16.07,3.37,3.29,0,*49
1530529388.29,42419,15.5,73766.5,16.07,3.45,3.55,0,*46
1530529389.49,42420,15.5,73762.3,16.07,3.89,3.97,0,*42
1530529390.7,42421,15.5,73766.3,16.11,2.65,2.59,0,*44
1530529391.9,42422,15.5,73760.0,16.07,2.95,3.07,0,*45
1530529393.08,42423,15.5,73766.3,16.07,4.07,4.23,0,*48
1530529394.24,42424,15.5,73766.0,16.07,3.55,3.63,0,*4C
1530529395.44,42425,15.5,73764.3,16.07,3.97,4.11,0,*41
1530529396.62,42426,15.5,73764.0,16.07,4.07,4.23,0,*4D
1530529397.84,42427,15.5,73764.8,16.07,3.45,3.53,0,*4D
1530529399.07,42428,15.5,73760.8,16.05,3.23,3.25,0,*41
1530529400.29,42429,15.5,73760.8,16.07,3.37,3.37,0,*44
1530529401.52,42430,15.5,73760.0,16.07,3.41,3.53,0,*4F
1530529402.74,42431,15.5,73762.0,16.07,3.97,4.01,0,*45
1530529403.93,42432,15.5,73760.3,16.07,3.85,3.97,0,*4D
1530529405.12,42433,15.5,73760.8,16.11,4.27,4.41,0,*48
1530529406.32,42434,15.5,73762.5,16.11,3.59,3.79,0,*4D
1530529407.55,42435,15.5,73762.5,16.11,2.59,2.59,0,*4E
1530529408.78,42436,15.5,73760.5,16.07,3.07,3.19,0,*45
1530529410.03,42437,15.5,73760.8,16.05,3.37,3.49,0,*40
1530529411.25,42438,15.5,73762.5,16.05,3.49,3.59,0,*47
1530529412.43,42439,15.5,73760.8,16.07,3.29,3.29,0,*45
1530529413.66,42440,15.5,73762.8,16.05,3.25,3.33,0,*4E
1530529414.9,42441,15.5,73764.5,16.05,3.53,3.75,0,*4C
1530529416.11,42442,15.5,73766.3,16.03,3.79,3.93,0,*49
1530529417.31,42443,15.5,73760.3,16.03,4.41,4.59,0,*45
1530529418.51,42444,15.5,73762.3,16.03,4.53,4.63,0,*48
1530529419.72,42445,15.5,73762.0,16.07,4.81,4.93,0,*4D
1530529420.89,42446,15.5,73762.3,16.07,4.11,4.15,0,*49
1530529422.07,42447,15.5,73760.0,16.07,4.07,4.11,0,*4B
1530529423.27,42448,15.5,73758.5,16.07,3.63,3.75,0,*44
1530529424.49,42449,15.5,73760.8,16.05,3.97,4.07,0,*4E
1530529425.67,42450,15.5,73760.3,16.07,4.23,4.23,0,*4A
1530529426.84,42451,15.5,73762.5,16.07,4.15,4.11,0,*4F
1530529428.07,42452,15.5,73760.0,16.05,2.59,2.65,0,*45
1530529429.33,42453,15.5,73762.8,16.05,3.03,3.03,0,*4B
1530529430.58,42454,15.5,73760.8,16.05,3.37,3.33,0,*48
1530529431.81,42455,15.5,73760.0,16.03,3.37,3.37,0,*4B
1530529433.05,42456,15.5,73758.0,16.01,2.73,2.77,0,*4E
1530529434.3,42457,15.5,73762.3,16.01,3.49,3.49,0,*4B
1530529435.5,42458,15.5,73758.5,16.01,3.59,3.59,0,*44
1530529436.72,42459,15.5,73760.5,16.01,3.93,4.05,0,*4D
1530529437.94,42460,15.5,73760.3,16.01,4.01,4.07,0,*49
1530529439.2,42461,15.5,73762.3,16.01,3.45,3.33,0,*4F
1530529440.42,42462,15.5,73764.5,16.03,3.79,3.67,0,*40
1530529441.67,42463,15.5,73762.8,16.01,2.51,2.47,0,*4B
1530529442.9,42464,15.5,73760.8,16.01,3.23,3.29,0,*41
1530529444.12,42465,15.5,73760.5,15.99,2.21,2.09,0,*42
1530529445.33,42466,15.5,73760.5,15.97,2.65,2.65,0,*45
1530529446.53,42467,15.5,73762.3,15.95,3.71,3.59,0,*4C
1530529447.75,42468,15.5,73760.3,15.93,3.97,3.93,0,*4B
1530529448.95,42469,15.5,73762.0,15.93,4.19,4.07,0,*41
1530529450.15,42470,15.5,73760.0,15.97,4.45,4.33,0,*43
1530529451.36,42471,15.5,73760.0,15.99,3.89,3.75,0,*4E
1530529452.62,42472,15.5,73760.0,15.97,3.15,3.11,0,*44
1530529453.85,42473,15.5,73762.3,15.97,4.31,4.23,0,*42
1530529455.08,42474,15.5,73760.5,15.99,4.79,4.59,0,*4A
1530529456.33,42475,15.5,73760.8,15.97,3.71,3.53,0,*47
1530529457.58,42476,15.5,73760.5,15.97,4.01,3.75,0,*40
1530529458.81,42477,15.5,73760.8,15.99,4.05,3.79,0,*47
1530529460.04,42478,15.5,73766.8,15.99,3.97,3.75,0,*48
1530529461.29,42479,15.5,73760.8,15.97,3.23,2.89,0,*4A
1530529462.51,42480,15.5,73760.0,15.93,3.59,3.37,0,*41
1530529463.78,42481,15.5,73762.8,15.97,3.75,3.41,0,*4B
1530529465.03,42482,15.5,73760.0,15.97,2.89,2.39,0,*44
1530529466.26,42483,15.5,73762.5,15.93,3.11,2.61,0,*4C
1530529467.46,42484,15.5,73764.0,15.93,3.25,2.61,0,*4C
1530529468.7,42485,15.5,73762.3,15.93,2.39,1.51,0,*41
1530529469.95,42486,15.5,73766.0,15.93,2.51,1.55,0,*48
1530529471.17,42487,15.5,73760.5,15.89,2.35,1.25,0,*47
1530529472.4,42488,15.5,73762.3,15.89,1.41,0.21,0,*7D
1530529473.61,42489,15.5,73760.3,15.89,1.41,0.17,0,*79
1530529474.87,42490,15.5,73766.0,15.85,3.11,1.85,0,*40
1530529476.07,42491,15.5,73762.0,15.89,4.11,2.95,0,*48
1530529477.27,42492,15.5,73764.3,15.91,3.81,2.55,0,*40
1530529478.5,42493,15.5,73760.3,15.89,4.27,2.81,0,*4A
1530529479.72,42494,15.5,73764.8,15.91,5.27,3.67,0,*4C
1530529480.95,42495,15.5,73760.0,15.95,4.67,2.81,0,*45
1530529482.15,42496,15.5,73764.5,15.99,4.81,2.81,0,*42
1530529483.38,42497,15.5,73764.0,16.01,4.07,1.55,0,*45
1530529484.62,42498,15.5,73766.5,16.05,4.31,1.43,0,*4C
1530529485.82,42499,15.5,73764.0,16.07,5.15,1.97,0,*41
1530529487.04,42500,15.5,73766.0,16.11,5.51,1.85,0,*44
1530529488.3,42501,15.5,73766.0,16.17,5.05,1.17,0,*49
1530529489.54,42502,15.5,73766.8,16.23,6.13,1.33,0,*4F
1530529490.76,42503,15.5,73764.8,16.31,5.55,0.17,0,*7B
1530529492.0,42504,15.5,73762.8,16.37,5.11,-1.01,0,*61
1530529493.22,42505,15.5,73764.0,16.41,6.03,-0.57,0,*53
1530529494.44,42506,15.5,73764.8,16.49,5.99,-1.09,0,*62
1530529495.65,42507,15.5,73764.3,16.53,5.49,-1.87,0,*63
1530529496.9,42508,15.5,73766.5,16.63,5.77,-1.83,0,*66
1530529498.11,42509,15.5,73764.8,16.69,5.15,-2.67,0,*60
1530529499.36,42510,15.5,73760.0,16.75,3.29,-4.81,0,*62
1530529500.6,42511,15.5,73764.3,16.81,1.71,-6.55,0,*6C
1530529501.84,42512,15.5,73760.5,16.85,1.63,-6.43,0,*6F
1530529503.07,42513,15.5,73764.5,16.89,1.93,-5.97,0,*67
1530529504.31,42514,15.5,73760.8,16.95,2.89,-4.93,0,*60
1530529505.54,42515,15.5,73760.8,17.05,3.53,-4.33,0,*65
1530529506.73,42516,15.5,73762.8,17.13,3.55,-4.21,0,*64
1530529507.95,42517,15.5,73760.5,17.21,3.41,-4.21,0,*61
1530529509.2,42518,15.5,73762.8,17.31,3.75,-3.75,0,*6E
1530529510.44,42519,15.5,73760.5,17.43,3.07,-4.45,0,*6B
1530529511.67,42520,15.5,73762.0,17.51,1.51,-6.35,0,*66
1530529512.93,42521,15.5,73762.8,17.59,1.47,-6.23,0,*6F
1530529514.16,42522,15.5,73762.3,17.63,1.67,-6.13,0,*64
1530529515.39,42523,15.5,73762.8,17.75,1.17,-6.73,0,*63
1530529516.62,42524,15.5,73762.0,17.81,-0.23,-8.59,0,*72
1530529517.82,42525,15.5,73760.8,17.89,-0.11,-8.33,0,*76
1530529519.05,42526,15.5,73762.0,17.95,0.51,-7.65,0,*5D
1530529520.28,42527,15.5,73760.8,18.03,0.63,-7.39,0,*54
1530529521.51,42528,15.5,73762.0,18.17,-0.11,-8.07,0,*74
1530529522.7,42529,15.56,73762.5,18.21,-0.15,-7.83,0,*77
1530529523.93,42530,15.5,73756.5,18.27,0.37,-6.81,0,*57
1530529525.16,42531,15.56,73762.8,18.35,0.21,-6.85,0,*56
1530529526.34,42532,15.5,73760.8,18.43,-0.33,-6.47,0,*74
1530529527.58,42533,15.5,73760.3,18.49,-0.49,-5.77,0,*72
1530529528.79,42534,15.56,73760.5,18.51,0.41,-3.71,0,*59
1530529530.03,42535,15.5,73760.0,18.55,0.55,-2.55,0,*5E
1530529531.24,42536,15.5,73758.0,18.59,0.97,-1.83,0,*57
1530529532.45,42537,15.5,73760.5,18.69,0.95,-1.63,0,*59
1530529533.69,42538,15.56,73762.3,18.69,0.83,-1.99,0,*54
1530529534.9,42539,15.5,73760.0,18.69,0.33,-2.95,0,*51
1530529536.14,42540,15.5,73760.0,18.71,0.75,-3.63,0,*5C
1530529537.4,42541,15.56,73762.5,18.71,0.41,-5.27,0,*5C
1530529538.64,42542,15.56,73762.3,18.73,0.37,-5.93,0,*53
1530529539.84,42543,15.5,73758.8,18.73,0.17,-7.23,0,*59
1530529541.1,42544,15.5,73760.5,18.71,-0.27,-9.15,0,*79
1530529542.36,42545,15.56,73764.5,18.73,-1.47,-10.75,0,*73
1530529543.6,42546,15.5,73762.0,18.73,-0.73,-10.67,0,*45
1530529544.82,42547,15.5,73760.8,18.73,-3.27,-13.79,0,*7A
1530529546.1,42548,15.56,73764.5,18.71,-3.51,-14.01,0,*7E
1530529547.33,42549,15.5,73760.0,18.69,-4.21,-14.51,0,*73
1530529548.56,42550,15.56,73764.3,18.69,-4.69,-14.65,0,*70
1530529549.78,42551,15.5,73762.0,18.69,-5.89,-15.67,0,*7D
1530529551.0,42552,15.56,73764.3,18.67,-6.69,-16.17,0,*79
1530529552.24,42553,15.5,73760.5,18.69,-7.73,-16.75,0,*78
1530529553.47,42554,15.5,73760.0,18.67,-8.51,-16.75,0,*7E
1530529554.69,42555,15.56,73762.3,18.69,-7.23,-14.43,0,*7C
1530529555.96,42556,15.5,73762.8,18.71,-7.31,-13.87,0,*7A
1530529557.19,42557,15.5,73762.0,18.73,-7.53,-13.33,0,*72
1530529558.44,42558,15.56,73762.3,18.77,-6.93,-11.85,0,*7B
1530529559.67,42559,15.5,73760.3,18.81,-6.01,-10.71,0,*72
1530529560.9,42560,15.56,73762.5,18.87,-7.19,-11.41,0,*74
1530529562.11,42561,15.5,73762.5,18.93,-6.69,-10.35,0,*74
1530529563.35,42562,15.5,73762.0,18.99,-7.83,-11.29,0,*74
1530529564.6,42563,15.56,73764.8,18.99,-8.25,-11.29,0,*76
1530529565.85,42564,15.56,73762.3,19.03,-11.33,-14.43,0,*45
1530529567.1,42565,15.5,73760.0,19.09,-11.51,-14.19,0,*45
1530529568.38,42566,15.5,73762.0,19.09,-11.55,-13.79,0,*43
1530529569.63,42567,15.56,73762.8,19.09,-11.55,-13.23,0,*4D
1530529570.84,42568,15.5,73760.0,19.11,-11.41,-12.93,0,*44
1530529572.05,42569,15.5,73762.0,19.11,-11.15,-12.21,0,*4D
1530529573.27,42570,15.56,73760.5,19.15,-10.93,-11.59,0,*42
1530529574.5,42571,15.5,73760.5,19.17,-11.15,-11.41,0,*47
1530529575.72,42572,15.56,73760.5,19.21,-10.85,-10.85,0,*40
1530529576.95,42573,15.56,73760.5,19.25,-10.93,-10.49,0,*42
1530529578.22,42574,15.56,73762.3,19.25,-12.11,-11.33,0,*41
1530529579.47,42575,15.56,73758.5,19.27,-12.79,-11.67,0,*4D
1530529580.7,42576,15.5,73756.5,19.31,-12.53,-11.11,0,*40
1530529581.93,42577,15.56,73758.8,19.33,-13.93,-12.07,0,*4A
1530529583.19,42578,15.5,73758.8,19.33,-15.39,-13.37,0,*41
1530529584.42,42579,15.56,73758.8,19.33,-15.11,-12.79,0,*41
1530529585.62,42580,15.5,73758.5,19.31,-14.65,-12.29,0,*42
1530529586.83,42581,15.5,73758.5,19.33,-14.33,-11.41,0,*4F
1530529588.06,42582,15.5,73760.0,19.33,-16.97,-13.87,0,*48
1530529589.26,42583,15.56,73762.3,19.33,-16.93,-13.47,0,*41
1530529590.5,42584,15.5,73758.8,19.31,-14.79,-11.33,0,*43
1530529591.7,42585,15.5,73760.3,19.33,-13.65,-9.97,0,*7D
1530529592.97,42586,15.56,73760.3,19.35,-13.29,-9.49,0,*73
1530529594.18,42587,15.56,73762.8,19.37,-15.15,-10.89,0,*4D
1530529595.41,42588,15.56,73760.5,19.39,-13.51,-9.19,0,*7B
1530529596.61,42589,15.5,73758.0,19.41,-12.39,-7.83,0,*77
1530529597.85,42590,15.56,73762.3,19.43,-11.45,-6.73,0,*7B
1530529599.07,42591,15.56,73764.3,19.53,-10.79,-5.97,0,*7C
1530529600.29,42592,15.56,73762.3,19.57,-10.63,-5.47,0,*7D
1530529601.52,42593,15.56,73760.5,19.61,-9.83,-4.77,0,*4D
1530529602.74,42594,15.56,73758.8,19.67,-10.89,-5.77,0,*7F
1530529603.97,42595,15.56,73758.8,19.71,-10.85,-5.69,0,*7A
1530529605.21,42596,15.56,73760.5,19.77,-9.11,-3.91,0,*4B
1530529606.43,42597,15.56,73756.0,19.83,-8.75,-3.51,0,*4E
1530529607.65,42598,15.56,73760.0,19.85,-8.85,-3.79,0,*42
1530529608.87,42599,15.56,73760.3,19.91,-8.07,-2.83,0,*48
1530529610.08,42600,15.56,73762.5,19.95,-8.03,-2.83,0,*4B
1530529611.32,42601,15.56,73756.3,20.03,-7.01,-1.95,0,*46
1530529612.52,42602,15.56,73758.5,20.09,-5.43,-0.61,0,*71
1530529613.73,42603,15.56,73758.5,20.17,-5.35,-0.69,0,*76
1530529614.98,42604,15.56,73756.0,20.25,-6.43,-1.99,0,*4C
1530529616.19,42605,15.56,73760.0,20.29,-5.35,-1.13,0,*41
1530529617.41,42606,15.56,73762.0,20.35,-4.33,-0.57,0,*79
1530529618.62,42607,15.56,73758.5,20.39,-3.03,0.43,0,*58
1530529619.85,42608,15.56,73762.0,20.49,-3.79,-1.01,0,*47
1530529621.04,42609,15.56,73756.8,20.49,-7.83,-5.43,0,*45
1530529622.29,42610,15.56,73758.3,20.47,-9.61,-7.05,0,*41
1530529623.57,42611,15.56,73760.0,20.43,-8.07,-5.61,0,*45
1530529624.81,42612,15.56,73762.0,20.43,-5.61,-3.35,0,*4C
1530529626.03,42613,15.56,73756.8,20.43,-4.29,-2.23,0,*46
1530529627.25,42614,15.56,73756.8,20.43,-3.39,-1.51,0,*41
1530529628.48,42615,15.56,73762.0,20.43,-3.83,-2.23,0,*47
1530529629.73,42616,15.56,73760.8,20.43,-4.13,-2.51,0,*4F
1530529630.97,42617,15.56,73760.0,20.43,-1.83,-0.33,0,*74
1530529632.19,42618,15.56,73760.8,20.43,-1.33,-0.11,0,*70
1530529633.45,42619,15.56,73760.0,20.43,1.25,2.47,0,*47
1530529634.68,42620,15.56,73760.3,20.45,4.59,5.77,0,*41
1530529635.9,42621,15.56,73760.3,20.51,5.81,6.93,0,*48
1530529637.15,42622,15.56,73762.5,20.55,3.53,5.05,0,*4A
1530529638.39,42623,15.56,73762.8,20.57,2.81,4.71,0,*45
1530529639.62,42624,15.56,73760.8,20.61,2.89,4.45,0,*48
1530529640.87,42625,15.56,73762.3,20.61,4.79,6.13,0,*41
1530529642.08,42626,15.56,73762.3,20.63,3.97,5.19,0,*4E
1530529643.27,42627,15.56,73760.8,20.67,4.53,6.03,0,*4C
1530529644.52,42628,15.56,73760.8,20.73,4.31,5.73,0,*46
1530529645.73,42629,15.56,73760.5,20.71,3.97,5.33,0,*4A
1530529646.96,42630,15.56,73760.8,20.73,5.05,6.29,0,*45
1530529648.19,42631,15.56,73762.5,20.73,4.37,5.51,0,*48
1530529649.39,42632,15.56,73760.0,20.73,4.45,5.71,0,*4C
1530529650.61,42633,15.56,73758.0,20.73,5.41,6.65,0,*4E
1530529651.81,42634,15.56,73760.5,20.73,5.07,6.29,0,*43
1530529653.03,42635,15.56,73758.8,20.77,5.23,6.53,0,*4D
1530529654.23,42636,15.56,73756.5,20.73,6.11,7.33,0,*4F
1530529655.44,42637,15.56,73760.5,20.75,6.87,8.01,0,*49
1530529656.7,42638,15.56,73758.0,20.77,6.61,7.69,0,*4D
1530529657.91,42639,15.56,73762.0,20.79,6.91,7.97,0,*4C
1530529659.12,42640,15.56,73760.3,20.83,7.23,8.27,0,*4B
1530529660.32,42641,15.56,73756.8,20.81,7.01,8.01,0,*4C
1530529661.52,42642,15.56,73756.8,20.83,6.75,7.87,0,*4E
1530529662.75,42643,15.56,73756.8,20.85,4.93,5.99,0,*4E
1530529663.95,42644,15.56,73756.3,20.81,5.37,6.21,0,*42
1530529665.16,42645,15.56,73758.3,20.79,5.01,6.29,0,*49
1530529666.4,42646,15.56,73760.0,20.77,5.77,6.73,0,*4A
1530529667.6,42647,15.56,73758.3,20.75,5.49,6.39,0,*4A
1530529668.84,42648,15.56,73754.3,20.73,5.85,6.69,0,*46
1530529670.06,42649,15.56,73756.0,20.73,6.17,7.01,0,*40
1530529671.28,42650,15.56,73758.3,20.71,6.03,6.87,0,*40
1530529672.46,42651,15.56,73758.5,20.71,4.85,5.71,0,*47
1530529673.72,42652,15.56,73758.0,20.69,5.01,5.93,0,*4C
1530529674.96,42653,15.56,73758.0,20.69,4.05,4.85,0,*4E
1530529676.14,42654,15.56,73754.8,20.63,4.57,5.41,0,*4D
1530529677.32,42655,15.56,73758.3,20.63,6.11,7.09,0,*42
1530529678.56,42656,15.56,73754.8,20.61,6.25,7.19,0,*45
1530529679.81,42657,15.56,73758.0,20.59,5.55,6.51,0,*46
1530529681.03,42658,15.56,73758.3,20.59,5.27,6.25,0,*4F
1530529682.27,42659,15.56,73756.8,20.59,5.55,6.53,0,*4A
1530529683.51,42660,15.56,73756.3,20.59,5.73,6.53,0,*44
1530529684.76,42661,15.56,73752.8,20.57,6.51,7.61,0,*48
1530529685.95,42662,15.56,73758.5,20.57,7.37,8.29,0,*49
1530529687.21,42663,15.56,73752.3,20.59,7.11,8.13,0,*4B
1530529688.43,42664,15.56,73758.0,20.59,5.49,6.39,0,*45
1530529689.63,42665,15.56,73752.3,20.59,5.37,6.25,0,*40
1530529690.81,42666,15.56,73758.3,20.57,4.89,5.71,0,*4B
1530529692.01,42667,15.56,73754.3,20.57,6.13,7.01,0,*4E
1530529693.25,42668,15.56,73758.5,20.55,7.27,8.01,0,*4A
1530529694.45,42669,15.56,73758.3,20.57,7.47,8.09,0,*47
1530529695.63,42670,15.56,73754.0,20.57,7.37,7.97,0,*40
1530529696.85,42671,15.56,73752.8,20.61,5.59,6.17,0,*47
1530529698.09,42672,15.56,73756.8,20.59,4.93,5.59,0,*41
1530529699.3,42673,15.56,73754.8,20.55,5.07,5.67,0,*4D
1530529700.53,42674,15.56,73754.3,20.55,3.45,3.81,0,*44
1530529701.77,42675,15.56,73752.3,20.47,3.79,4.49,0,*4A
1530529702.97,42676,15.56,73758.3,20.45,5.15,5.93,0,*41
1530529704.2,42677,15.56,73756.0,20.43,4.89,5.51,0,*4C
1530529705.43,42678,15.56,73752.5,20.39,4.79,5.37,0,*41
1530529706.65,42679,15.56,73754.5,20.37,4.63,5.23,0,*40
1530529707.86,42680,15.56,73758.3,20.33,4.57,5.05,0,*41
1530529709.08,42681,15.56,73754.5,20.29,3.53,4.01,0,*4D
1530529710.32,42682,15.56,73756.0,20.29,4.67,5.27,0,*4B
1530529711.55,42683,15.56,73752.8,20.25,4.57,5.01,0,*41
1530529712.79,42684,15.56,73756.8,20.21,4.53,5.01,0,*46
1530529714.03,42685,15.56,73754.0,20.15,3.67,4.01,0,*41
1530529715.21,42686,15.56,73758.5,20.11,4.19,4.53,0,*4F
1530529716.43,42687,15.56,73758.3,20.07,4.05,4.37,0,*46
1530529717.63,42688,15.56,73758.0,20.03,3.97,4.19,0,*4D
1530529718.83,42689,15.56,73758.3,20.01,3.85,4.19,0,*4D
1530529720.03,42690,15.56,73756.5,19.99,4.01,4.19,0,*45
1530529721.3,42691,15.56,73756.5,19.93,3.67,3.71,0,*40
1530529722.5,42692,15.56,73752.0,19.89,4.15,4.27,0,*4E
1530529723.71,42693,15.56,73758.0,19.85,4.11,4.33,0,*42